HAWK-6C (55326 NORAD) Tracking and Keplerian Element Data

This shows tracking and keplerian element data for the satellite.

Feedback or suggestion? Click here.




ElementValue
Catalog55326
NameHAWK-6C
Epoch Orbit1541
Epoch Day127.17316858
Epoch Year2023
RAAN57.9554
Inclination40.4879
Eccentricity0.0004546
Argument of Perigee209.8546
Mean Anonmoly150.1998
Mean Motion15.0703471
Decay Rate6.149E-05
L11 55326U 23011C 23127.17316858 .00006149 00000+0 41340-3 0 9996
L22 55326 40.4879 57.9554 0004546 209.8546 150.1998 15.07034710 15415



Live tracking and technical data element details for HAWK-6C (NORAD 55326). HAWK-6C can be tracked NOW for your location showing map with azimuth and elevation plus other details from your city location.







IsCatalogInMostPopularTable: catalog: 55326, numindb: -1

Insert: records affected: 1


GetName: 55326 HAWK-6C

Hit Count: inserted at: Mon, 05 Jun 2023 20:58:19 GMT